Weather History for KMTJ - August, 2014

Change the Weather History Date:

Saturday, August 9, 2014

  Actual Average Record
Temperature  
Mean Temperature 73 °F 72 °F  
Max Temperature 88 °F 87 °F 96 °F (2000)
Min Temperature 57 °F 57 °F 50 °F (2004)
Degree Days  
Heating Degree Days 0 0  
Month to date heating degree days 0 0  
Since 1 June heating degree days 18 39  
Since 1 July heating degree days 0 0  
Cooling Degree Days 8 7  
Month to date cooling degree days 70 69  
Year to date cooling degree days 592 491  
Since 1 June cooling degree days 551 474  
Growing Degree Days 22 (Base 50)    
Moisture  
Dew Point 38 °F    
Average Humidity 30    
Maximum Humidity 47    
Minimum Humidity 12    
Precipitation  
Precipitation T in 0.04 in 0.21 in (1997)
Month to date precipitation 0.42 0.36  
Year to date precipitation 4.52 6.43  
Sea Level Pressure  
Sea Level Pressure 30.00 in    
Wind  
Wind Speed 7 mph (ENE)    
Max Wind Speed 38 mph    
Max Gust Speed 48 mph    
Visibility 10 miles    
Events Rain , Thunderstorm    
T = Trace of Precipitation, MM = Missing Value Source: NWS Daily Summary

Daily Weather History Graph

Daily Weather History Graph

Search for Another Location

Airport or City:

Trip Planner

Search our weather history database for the weather conditions in past years. The results will help you decide how hot, cold, wet, or windy it might be!

Date:

Astronomy

Aug. 09, 2014 Rise Set
Actual Time 6:20 AM MDT 8:12 PM MDT
Civil Twilight 5:51 AM MDT 8:41 PM MDT
Nautical Twilight 5:16 AM MDT 9:16 PM MDT
Astronomical Twilight 4:39 AM MDT 9:53 PM MDT
Moon 7:17 PM MDT (8/9) 5:04 AM MDT (8/9)
Length of Visible Light 14h 49m
Length of Day
13h 52m
Waxing Gibbous, 98% of the Moon is Illuminated
Aug 9
Waxing Gibbous
Aug 10
Full
Aug 17
Last Quarter
Aug 25
New
Sep 2
First Quarter

Hourly Weather History & Observations

Time (MDT) Temp. Dew Point Humidity Pressure Visibility Wind Dir Wind Speed Gust Speed Precip Events Conditions
12:53 AM 64.9 °F 37.9 °F 37% 29.93 in 10.0 mi SE 10.4 mph - N/A   Clear
1:53 AM 64.0 °F 37.0 °F 37% 29.93 in 10.0 mi SE 12.7 mph - N/A   Clear
2:53 AM 62.1 °F 37.0 °F 39% 29.93 in 10.0 mi ESE 10.4 mph - N/A   Clear
3:53 AM 60.1 °F 37.0 °F 42% 29.94 in 10.0 mi SE 8.1 mph - N/A   Clear
4:53 AM 60.1 °F 37.0 °F 42% 29.95 in 10.0 mi SE 11.5 mph - N/A   Clear
5:53 AM 57.0 °F 37.0 °F 47% 29.98 in 10.0 mi ESE 8.1 mph - N/A   Clear
6:53 AM 57.9 °F 37.9 °F 47% 30.00 in 10.0 mi ESE 5.8 mph - N/A   Clear
7:53 AM 62.1 °F 41.0 °F 46% 30.01 in 10.0 mi SSE 4.6 mph - N/A   Clear
8:53 AM 68.0 °F 42.1 °F 39% 30.02 in 10.0 mi South 4.6 mph - N/A   Clear
9:53 AM 72.0 °F 41.0 °F 33% 30.03 in 10.0 mi NW 4.6 mph - N/A   Clear
11:53 AM 81.0 °F 39.0 °F 22% 30.01 in 10.0 mi Variable 4.6 mph - N/A   Clear
12:53 PM 82.9 °F 39.9 °F 22% 29.99 in 10.0 mi North 8.1 mph - N/A   Clear
1:34 PM 81.0 °F 33.1 °F 18% 30.24 in 4.0 mi NNW 19.6 mph 48.3 mph 0.00 in Rain Light Rain
1:53 PM 81.0 °F 36.0 °F 20% 30.00 in 10.0 mi Calm Calm - 0.00 in   Partly Cloudy
2:53 PM 86.0 °F 35.1 °F 16% 29.97 in 10.0 mi NNW 6.9 mph - N/A   Clear
3:53 PM 87.1 °F 36.0 °F 16% 29.95 in 10.0 mi NNE 4.6 mph - N/A   Clear
4:42 PM 84.9 °F 37.0 °F 18% 30.19 in 10.0 mi NW 6.9 mph 18.4 mph N/A Thunderstorm Clear
4:53 PM 84.9 °F 37.9 °F 19% 29.96 in 10.0 mi NW 19.6 mph 25.3 mph N/A Thunderstorm Scattered Clouds
5:53 PM 86.0 °F 28.9 °F 13% 29.94 in 10.0 mi NNW 6.9 mph - N/A   Clear
6:53 PM 84.0 °F 37.9 °F 19% 29.95 in 10.0 mi WNW 6.9 mph - N/A   Clear
7:53 PM 79.0 °F 41.0 °F 26% 29.96 in 10.0 mi NW 11.5 mph - N/A   Clear
10:53 PM 68.0 °F 43.0 °F 40% 30.02 in 10.0 mi Variable 3.5 mph - N/A   Clear
11:53 PM 64.0 °F 43.0 °F 46% 30.03 in 10.0 mi SSE 8.1 mph - N/A   Clear